Weather History for KIDA - January, 2014

Change the Weather History Date:

Friday, January 17, 2014

  Actual Average Record
Temperature  
Mean Temperature 22 °F 20 °F  
Max Temperature 27 °F 29 °F 44 °F (1981)
Min Temperature 16 °F 12 °F -24 °F (1984)
Degree Days  
Heating Degree Days 43 45  
Month to date heating degree days 683 765  
Since 1 July heating degree days 3948 4038  
Cooling Degree Days 0 0  
Month to date cooling degree days 0 0  
Year to date cooling degree days 0 0  
Moisture  
Dew Point 20 °F    
Average Humidity 91    
Maximum Humidity 100    
Minimum Humidity 81    
Precipitation  
Precipitation T in 0.02 in 0.19 in (1980)
Month to date precipitation 0.19 0.42  
Year to date precipitation 0.19 0.42  
Sea Level Pressure  
Sea Level Pressure 30.45 in    
Wind  
Wind Speed 4 mph (North)    
Max Wind Speed 10 mph    
Max Gust Speed 12 mph    
Visibility 2 miles    
Events Fog    
T = Trace of Precipitation, MM = Missing Value Source: NWS Daily Summary

Daily Weather History Graph

Daily Weather History Graph

Search for Another Location

Airport or City:

Trip Planner

Search our weather history database for the weather conditions in past years. The results will help you decide how hot, cold, wet, or windy it might be!

Date:

Astronomy

Jan. 17, 2014 Rise Set
Actual Time 7:57 AM MST 5:20 PM MST
Civil Twilight 7:25 AM MST 5:51 PM MST
Nautical Twilight 6:50 AM MST 6:27 PM MST
Astronomical Twilight 6:16 AM MST 7:01 PM MST
Moon 7:14 PM MST (1/17) 8:22 AM MST (1/17)
Length of Visible Light 10h 26m
Length of Day
9h 23m
Full, 98% of the Moon is Illuminated
Jan 17
Full
Jan 23
Last Quarter
Jan 30
New
Feb 6
First Quarter
Feb 14
Full

Hourly Weather History & Observations

Time (MST) Temp. Windchill Dew Point Humidity Pressure Visibility Wind Dir Wind Speed Gust Speed Precip Events Conditions
12:50 AM 21.2 °F 13.6 °F 21.2 °F 100% 30.44 in 0.5 mi NNW 5.8 mph - N/A Fog Light Freezing Fog
12:53 AM 21.9 °F 13.4 °F 21.0 °F 96% 30.57 in 0.5 mi NNW 6.9 mph - N/A Fog Light Freezing Fog
1:23 AM 21.9 °F 17.2 °F 21.0 °F 96% 30.43 in 0.2 mi NNE 3.5 mph - N/A Fog Light Freezing Fog
1:44 AM 21.9 °F 17.2 °F 21.0 °F 96% 30.44 in 0.5 mi ENE 3.5 mph - N/A Fog Light Freezing Fog
1:53 AM 21.9 °F 15.7 °F 21.0 °F 96% 30.56 in 0.5 mi North 4.6 mph - N/A Fog Light Freezing Fog
2:22 AM 21.9 °F 15.7 °F 19.9 °F 92% 30.43 in 0.2 mi North 4.6 mph - N/A Fog Light Freezing Fog
2:33 AM 21.9 °F 15.7 °F 19.9 °F 92% 30.43 in 0.5 mi North 4.6 mph - N/A Fog Light Freezing Fog
2:53 AM 21.9 °F 15.7 °F 19.9 °F 92% 30.56 in 0.5 mi NNW 4.6 mph - N/A Fog Light Freezing Fog
3:22 AM 21.9 °F 17.2 °F 19.9 °F 92% 30.43 in 1.0 mi North 3.5 mph - N/A   Overcast
3:53 AM 21.9 °F 13.4 °F 19.9 °F 92% 30.56 in 0.8 mi NNW 6.9 mph - N/A   Mist
4:18 AM 21.9 °F 15.7 °F 19.9 °F 92% 30.43 in 1.8 mi North 4.6 mph - N/A   Overcast
4:25 AM 21.9 °F 17.2 °F 19.9 °F 92% 30.43 in 2.5 mi North 3.5 mph - N/A   Overcast
4:35 AM 21.9 °F - 19.9 °F 92% 30.42 in 1.2 mi Calm Calm - N/A   Overcast
4:53 AM 21.9 °F - 19.9 °F 92% 30.55 in 2.0 mi Calm Calm - N/A   Overcast
5:01 AM 21.9 °F 17.2 °F 19.9 °F 92% 30.42 in 1.2 mi NW 3.5 mph - N/A   Overcast
5:24 AM 21.9 °F 15.7 °F 19.9 °F 92% 30.42 in 2.0 mi NW 4.6 mph - N/A   Overcast
5:33 AM 21.9 °F 17.2 °F 19.9 °F 92% 30.42 in 1.8 mi NNW 3.5 mph - N/A   Overcast
5:41 AM 21.9 °F 17.2 °F 19.9 °F 92% 30.41 in 3.0 mi Variable 3.5 mph - N/A   Overcast
5:53 AM 21.9 °F - 19.9 °F 92% 30.55 in 2.0 mi Calm Calm - N/A   Overcast
6:05 AM 21.9 °F 15.7 °F 19.9 °F 92% 30.42 in 1.8 mi North 4.6 mph - N/A   Overcast
6:23 AM 21.9 °F 15.7 °F 19.9 °F 92% 30.41 in 0.8 mi North 4.6 mph - N/A   Overcast
6:30 AM 21.9 °F 15.7 °F 19.9 °F 92% 30.42 in 1.2 mi North 4.6 mph - N/A   Overcast
6:53 AM 21.0 °F 14.6 °F 19.9 °F 96% 30.55 in 1.0 mi NNE 4.6 mph - N/A Fog Light Freezing Fog
7:02 AM 21.0 °F 14.6 °F 19.0 °F 92% 30.41 in 0.5 mi North 4.6 mph - N/A Fog Light Freezing Fog
7:34 AM 19.0 °F 9.0 °F 17.1 °F 92% 30.40 in 1.0 mi NNE 8.1 mph - N/A Fog Light Freezing Fog
7:53 AM 19.0 °F 10.0 °F 16.0 °F 88% 30.54 in 1.0 mi NNE 6.9 mph - N/A Fog Light Freezing Fog
8:06 AM 18.0 °F 9.8 °F 16.0 °F 92% 30.40 in 2.0 mi North 5.8 mph - N/A   Overcast
8:24 AM 18.0 °F 6.9 °F 16.0 °F 92% 30.41 in 1.0 mi North 9.2 mph - N/A   Overcast
8:31 AM 18.0 °F 8.7 °F 15.1 °F 88% 30.40 in 0.8 mi NNE 6.9 mph - N/A   Overcast
8:53 AM 17.1 °F 11.7 °F 15.1 °F 92% 30.56 in 1.0 mi NNE 3.5 mph - N/A   Overcast
9:22 AM 17.1 °F 11.7 °F 14.0 °F 88% 30.41 in 2.5 mi NNE 3.5 mph - N/A   Mostly Cloudy
9:51 AM 17.6 °F 12.3 °F 15.8 °F 93% 30.42 in 7.0 mi North 3.5 mph - N/A   Scattered Clouds
9:53 AM 18.0 °F 12.7 °F 15.1 °F 88% 30.58 in 7.0 mi North 3.5 mph - N/A   Scattered Clouds
10:29 AM 19.0 °F 12.3 °F 17.1 °F 92% 30.42 in 2.0 mi NNW 4.6 mph - N/A   Mostly Cloudy
10:53 AM 19.0 °F - 17.1 °F 92% 30.56 in 1.0 mi Calm Calm - N/A   Mostly Cloudy
11:53 AM 21.0 °F 14.6 °F 19.0 °F 92% 30.54 in 1.0 mi West 4.6 mph - N/A   Overcast
12:53 PM 23.0 °F 18.4 °F 19.9 °F 88% 30.50 in 2.0 mi NW 3.5 mph - 0.00 in   Mostly Cloudy
1:53 PM 24.1 °F 19.7 °F 21.0 °F 88% 30.48 in 2.0 mi NW 3.5 mph - N/A   Mostly Cloudy
1:59 PM 24.1 °F 19.7 °F 21.0 °F 88% 30.34 in 4.0 mi WSW 3.5 mph - N/A   Mostly Cloudy
2:43 PM 26.1 °F - 21.9 °F 84% 30.34 in 5.0 mi Calm Calm - N/A   Haze
2:53 PM 26.1 °F 21.9 °F 21.9 °F 84% 30.48 in 5.0 mi North 3.5 mph - N/A   Haze
3:53 PM 27.0 °F - 21.9 °F 81% 30.46 in 5.0 mi Calm Calm - N/A   Haze
4:53 PM 26.1 °F 20.5 °F 23.0 °F 88% 30.46 in 8.0 mi North 4.6 mph - N/A   Partly Cloudy
5:53 PM 24.1 °F 16.0 °F 21.9 °F 91% 30.47 in 7.0 mi North 6.9 mph - N/A   Partly Cloudy
6:24 PM 23.0 °F 13.1 °F 21.9 °F 96% 30.34 in 1.0 mi NNE 9.2 mph - N/A   Mostly Cloudy
6:37 PM 23.0 °F 14.7 °F 21.0 °F 92% 30.34 in 0.5 mi NNE 6.9 mph - N/A Fog Light Freezing Fog
6:53 PM 23.0 °F 17.0 °F 21.9 °F 96% 30.48 in 0.5 mi North 4.6 mph - N/A Fog Light Freezing Fog
7:53 PM 21.9 °F 14.5 °F 21.0 °F 96% 30.48 in 0.2 mi NNE 5.8 mph - N/A Fog Light Freezing Fog
8:53 PM 21.0 °F 16.2 °F 19.9 °F 96% 30.49 in 0.2 mi North 3.5 mph - N/A Fog Light Freezing Fog
9:53 PM 21.9 °F 15.7 °F 19.9 °F 92% 30.50 in 0.2 mi NNE 4.6 mph - N/A Fog Light Freezing Fog
10:15 PM 23.0 °F 18.4 °F 21.0 °F 92% 30.34 in 0.5 mi NE 3.5 mph - N/A Fog Light Freezing Fog
10:53 PM 23.0 °F 13.9 °F 21.0 °F 92% 30.51 in 3.0 mi NNE 8.1 mph - N/A   Overcast
11:05 PM 23.0 °F 15.8 °F 21.0 °F 92% 30.36 in 1.8 mi NE 5.8 mph - N/A   Overcast
11:29 PM 21.9 °F 14.5 °F 19.9 °F 92% 30.36 in 3.0 mi North 5.8 mph - N/A   Overcast
11:53 PM 21.0 °F 13.4 °F 19.0 °F 92% 30.52 in 4.0 mi North 5.8 mph - N/A   Overcast